Regional Weather Roundup
Issued by NWS

Home | Current Version | Previous Version | Text Only | Print | Product List | Glossary Off
Versions: 1 2 3 4 5 6 7 8 9 10 11 12 13 14 15 16 17 18 19 20 21 22 23 24 25 26 27 28 29 30 31 32 33 34 35 36 37 38 39 40 41 42 43 44 45 46 47 48 49 50

000
ASUS43 KLOT 020000
RWRIL

ILLINOIS REGIONAL WEATHER ROUNDUP
NATIONAL WEATHER SERVICE CHICAGO/ROMEOVILLE IL
700 PM CDT WED OCT 01 2014

NOTE: "FAIR" INDICATES FEW OR NO CLOUDS BELOW 12,000 FEET WITH NO
SIGNIFICANT WEATHER AND/OR OBSTRUCTIONS TO VISIBILITY.

* THESE STATIONS ARE NOT UNDER NWS QUALITY CONTROL. THEY ALSO MAY NOT
  REPORT WEATHER SUCH AS PRECIPITATION OR FOG.

ILZ001-002-007-009-015-016-024-020100-
NORTHWEST ILLINOIS

CITY           SKY/WX    TMP DP  RH WIND       PRES   REMARKS
MOLINE         CLOUDY    69  60  73 CALM      29.82S
6HR MIN TEMP:  69; 6HR MAX TEMP:  72; 6HR PCP: TRACE;

$$

ILZ003-004-008-010-011-017-018-020100-
NORTH CENTRAL ILLINOIS

CITY           SKY/WX    TMP DP  RH WIND       PRES   REMARKS
ROCKFORD       CLOUDY    68  55  63 E8        29.87R
6HR MIN TEMP:  68; 6HR MAX TEMP:  73;

FREEPORT*      CLOUDY    67  57  71 SE6       29.87R
$$

ILZ005-006-012>014-019>023-020100-
NORTHEAST ILLINOIS

CITY           SKY/WX    TMP DP  RH WIND       PRES   REMARKS
CHICAGO-OHARE  MOCLDY    66  54  65 E6        29.90R
6HR MIN TEMP:  66; 6HR MAX TEMP:  70;

CHICAGO-MIDWAY NOT AVBL
AURORA         MOCLDY    69  54  58 E14       29.88R
6HR MIN TEMP:  69; 6HR MAX TEMP:  74;

LANSING*       PTCLDY    65  53  66 SE8       29.91F
WAUKEGAN       NOT AVBL
DUPAGE AIRPORT MOCLDY    67  55  65 E7        29.88S
6HR MIN TEMP:  67; 6HR MAX TEMP:  73;

WHEELING       MOCLDY    63  54  72 E3        29.93R
6HR MIN TEMP:  63; 6HR MAX TEMP:  69;

NORTHERLY ISL    N/A     64  57  78 SE7         N/A
$$

LMZ740>746-020100-
SOUTHERN LAKE MICHIGAN

STATION/POSITION SKY/WX   TEMP    WIND        PRES    VSBY  WAVE
                          AIR SEA DIR/SP/G                  HT/PER
                          (F)     (DEG/KT/KT) (MB)    (MI)  (FT/S)
SOUTHERN BUOY              61 61  100/ 12/ 14 1013.3F         2/ 3
WAUKEGAN HARBOR            60      CALM  /  3   N/A
HARRISON CRIB              65     140/ 16/ 18   N/A
CALUMET HARBOR             68     130/  6/  9 1011.9R
MICHIGAN CITY              66     110/  9/ 13   N/A
$$

ILZ025>027-034>036-040-047-049-050-058-095>099-020100-
WEST-CENTRAL ILLINOIS

CITY           SKY/WX    TMP DP  RH WIND       PRES   REMARKS
QUINCY         CLOUDY    65  63  93 E9        29.81S
$$

ILZ028>032-037-038-041>044-048-051>054-059>061-020100-
CENTRAL ILLINOIS

CITY           SKY/WX    TMP DP  RH WIND       PRES   REMARKS
DECATUR        CLOUDY    75  60  59 SE8       29.86S
PEORIA         RAIN      70  64  81 SW7       29.86S
6HR MIN TEMP:  70; 6HR MAX TEMP:  79; 6HR PCP:  0.06;

SPRINGFIELD    LGT RAIN  72  66  81 N3        29.83R
6HR MIN TEMP:  72; 6HR MAX TEMP:  85; 6HR PCP: TRACE;

TAYLORVILLE    NOT AVBL
$$

ILZ033-039-045-046-055>057-062-063-020100-
EAST-CENTRAL ILLINOIS

CITY           SKY/WX    TMP DP  RH WIND       PRES   REMARKS
MATTOON        PTCLDY    72  57  59 SE6       29.88R
$$

ILZ079-100>102-020100-
SOUTHWEST ILLINOIS

CITY           SKY/WX    TMP DP  RH WIND       PRES   REMARKS
BELLEVILLE     MOCLDY    79  65  61 E7        29.82R HX  81
CAHOKIA*       CLOUDY    81  64  56 SE7       29.81R HX  82
SPARTA*        PTCLDY    79  63  57 SE7       29.85R HX  81
$$

ILZ064>066-069>071-074>076-080>082-084>086-088>090-092>094-020100-
SOUTH-CENTRAL ILLINOIS

CITY           SKY/WX    TMP DP  RH WIND       PRES   REMARKS
CARBONDALE     CLEAR     77  62  59 SE6       29.86S
6HR MIN TEMP:  77; 6HR MAX TEMP:  86;

$$

ILZ067-068-072-073-078-083-087-091-020100-
SOUTHEAST ILLINOIS

CITY           SKY/WX    TMP DP  RH WIND       PRES   REMARKS
LAWRENCEVILLE  PTCLDY    73  58  59 SE6       29.90S
ROBINSON*      CLEAR     73  60  64 SE6       29.89F
$$

ABBREVIATIONS USED IN REMARKS
   TC - TEMPERATURE IN CELSIUS
  WCI - WIND CHILL INDEX
   HX - HEAT INDEX
  VSB - VISIBILITY
$$



USA.gov is the U.S. government's official web portal to all federal, state and local government web resources and services.